Home   Weather   Saskatoon   Past weeks
Flag for Canada

Past Weather in Saskatoon, Saskatchewan, Canada — Yesterday and Last 2 Weeks

Now
30 °F

Partly sunny.


Feels Like: 23 °F
Forecast: N/A
Wind: 8 mph from Southwest

Location: Saskatoon Weather Station

Current Time: Dec 12, 2018 at 5:28:29 pm

Latest Report: Dec 12, 2018 at 4:00 pm


Visibility: 15 mi

Pressure: 29.64 "Hg

Humidity: 86%

Dew Point: 27 °F

Location of SaskatoonLocation

Past Weather in Saskatoon — Graph

°F

Saskatoon Temperature Yesterday

Maximum temperature yesterday: 30 °F (at 4:00 am)
Minimum temperature yesterday: 12 °F (at 12:00 am)
Average temperature yesterday: 24 °F

High & Low Weather Summary for the Past Weeks

 TemperatureHumidityPressure
High43 °F (Nov 29, 5:00 am)100% (Nov 29, 2:00 am)30.46 "Hg (Nov 29, 2:00 am)
Low-8 °F (Dec 8, 5:00 am)67% (Dec 7, 2:00 pm)29.31 "Hg (Dec 12, 5:00 am)
Average16 °F88%30.04 "Hg
* Reported Nov 27 4:00 pm — Dec 12 4:00 pm, Saskatoon. Weather by CustomWeather, © 2018

Note: Actual official high and low records may vary slightly from our data, if they occured in-between our weather recording intervals... More about our weather records

Advertising

Saskatoon Weather History for the Previous 24 Hours

Scroll right to see more
 ConditionsComfort  
Time TempWeatherWind HumidityBarometerVisibility
4:00 pm
Wed, Dec 12
30 °FPartly sunny.8 mph86%29.64 "Hg15 mi
3:00 pm30 °FPartly sunny.10 mph80%29.60 "Hg15 mi
2:00 pm30 °FMostly cloudy.10 mph86%29.56 "Hg15 mi
1:00 pm28 °FMore clouds than sun.15 mph86%29.54 "Hg15 mi
12:00 pm28 °FMostly cloudy.10 mph86%29.51 "Hg15 mi
11:00 am25 °FBroken clouds.6 mph86%29.47 "Hg15 mi
10:00 am25 °FPartly sunny.12 mph93%29.44 "Hg15 mi
9:00 am18 °FPassing clouds.9 mph100%29.40 "Hg15 mi
8:00 am21 °FPassing clouds.10 mph93%29.36 "Hg15 mi
7:00 am25 °FPassing clouds.8 mph86%29.35 "Hg15 mi
6:00 am28 °FPassing clouds.8 mph86%29.31 "Hg15 mi
5:00 am28 °FOvercast.10 mph86%29.31 "Hg15 mi
4:00 am30 °FOvercast.12 mph75%29.32 "Hg15 mi
3:00 am28 °FPartly cloudy.14 mph80%29.33 "Hg15 mi
2:00 am27 °FPassing clouds.14 mph80%29.36 "Hg15 mi
1:00 am28 °FPassing clouds.16 mph74%29.39 "Hg15 mi
12:00 am28 °FPassing clouds.20 mph74%29.42 "Hg15 mi
11:00 pm
Tue, Dec 11
27 °FPassing clouds.18 mph74%29.45 "Hg15 mi
10:00 pm27 °FPassing clouds.18 mph74%29.49 "Hg15 mi
9:00 pm27 °FPassing clouds.16 mph74%29.54 "Hg15 mi
8:00 pm27 °FPassing clouds.17 mph74%29.58 "Hg15 mi
7:00 pm27 °FPartly cloudy.17 mph74%29.60 "Hg15 mi
6:00 pm27 °FPassing clouds.15 mph74%29.65 "Hg15 mi
5:00 pm27 °FPassing clouds.13 mph80%29.69 "Hg15 mi
Weather by CustomWeather, © 2018

See weather overview